When you browse on this site, cookies collect data to enhance your experience and personalize the content and advertising you see.
Visit our Privacy Policy to learn more. By continuing to use the site, you agree to this use of cookies and data.
  • In Hungary
  • List of Countries
  • For 7 days
  • Water Temperature
  • Satellite Maps
  • Weather Map
  • News
  • Weather Widgets
  • user-avatar
    Login

    Hourly Weather Korczunek

    Today, 20 January, Sunday

    Time Temperature Precipitation Wind Pressure Humidity
    00:00 -6°C° 0 mm 2 mps 746 mmHg 90%
    01:00 -7°C° 0 mm 2 mps 746 mmHg 90%
    02:00 -7°C° 0 mm 2 mps 746 mmHg 90%
    03:00 -7°C° 0 mm 2 mps 746 mmHg 90%
    04:00 -7°C° 0 mm 2 mps 745 mmHg 89%
    05:00 -7°C° 0 mm 2 mps 745 mmHg 89%
    06:00 -8°C° 0 mm 2 mps 745 mmHg 90%
    07:00 -8°C° 0 mm 2 mps 744 mmHg 90%
    08:00 -8°C° 0 mm 2 mps 744 mmHg 91%
    09:00 -7°C° 0 mm 2 mps 744 mmHg 91%
    10:00 -4°C° 0 mm 1 mps 744 mmHg 90%
    11:00 -3°C° 0 mm 1 mps 744 mmHg 89%
    12:00 -3°C° 0 mm 1 mps 744 mmHg 88%
    13:00 -3°C° 0 mm 1 mps 744 mmHg 86%
    14:00 -3°C° 0 mm 0 mps 743 mmHg 85%
    15:00 -3°C° 0 mm 0 mps 743 mmHg 87%
    16:00 -3°C° 0 mm 1 mps 743 mmHg 89%
    17:00 -3°C° 0 mm 1 mps 743 mmHg 91%
    18:00 -4°C° 0 mm 1 mps 743 mmHg 91%
    19:00 -4°C° 0 mm 1 mps 743 mmHg 92%
    20:00 -6°C° 0 mm 1 mps 743 mmHg 92%
    21:00 -6°C° 0 mm 1 mps 744 mmHg 92%
    22:00 -6°C° 0 mm 1 mps 744 mmHg 91%
    23:00 -6°C° 0 mm 1 mps 744 mmHg 91%

    Tomorrow, 21 January, Monday

    Time Temperature Precipitation Wind Pressure Humidity
    00:00 -7°C° 0 mm 2 mps 744 mmHg 90%
    01:00 -7°C° 0 mm 2 mps 744 mmHg 89%
    02:00 -8°C° 0 mm 2 mps 745 mmHg 88%
    03:00 -8°C° 0 mm 2 mps 745 mmHg 88%
    04:00 -7°C° 0 mm 2 mps 745 mmHg 89%
    05:00 -7°C° 0 mm 2 mps 745 mmHg 89%
    06:00 -7°C° 0 mm 2 mps 745 mmHg 91%
    07:00 -8°C° 0 mm 2 mps 746 mmHg 92%
    08:00 -8°C° 0 mm 2 mps 746 mmHg 93%
    09:00 -7°C° 0 mm 2 mps 746 mmHg 93%
    10:00 -6°C° 0 mm 2 mps 747 mmHg 92%
    11:00 -3°C° 0 mm 1 mps 747 mmHg 91%
    12:00 -3°C° 0 mm 1 mps 747 mmHg 90%
    13:00 -2°C° 0 mm 1 mps 747 mmHg 88%
    14:00 -2°C° 0 mm 1 mps 747 mmHg 86%
    15:00 -2°C° 0 mm 1 mps 747 mmHg 87%
    16:00 -3°C° 0 mm 1 mps 747 mmHg 88%
    17:00 -3°C° 0 mm 1 mps 747 mmHg 89%
    18:00 -3°C° 0 mm 1 mps 747 mmHg 89%
    19:00 -3°C° 0 mm 1 mps 747 mmHg 89%
    20:00 -3°C° 0 mm 1 mps 747 mmHg 88%
    21:00 -3°C° 0 mm 1 mps 747 mmHg 88%
    22:00 -3°C° 0 mm 1 mps 747 mmHg 87%
    23:00 -3°C° 0 mm 1 mps 747 mmHg 86%

    Day after tomorrow, 22 January, Tuesday

    Time Temperature Precipitation Wind Pressure Humidity
    00:00 -3°C° 0 mm 1 mps 747 mmHg 86%
    01:00 -5°C° 0 mm 2 mps 747 mmHg 86%
    02:00 -5°C° 0 mm 2 mps 746 mmHg 86%
    03:00 -5°C° 0 mm 2 mps 746 mmHg 86%
    04:00 -5°C° 0 mm 2 mps 746 mmHg 86%
    05:00 -6°C° 0 mm 2 mps 745 mmHg 86%
    06:00 -6°C° 0 mm 2 mps 745 mmHg 87%
    07:00 -7°C° 0 mm 2 mps 745 mmHg 88%
    08:00 -7°C° 0 mm 2 mps 745 mmHg 90%
    09:00 -8°C° 0 mm 3 mps 745 mmHg 89%
    10:00 -8°C° 0 mm 3 mps 744 mmHg 88%
    11:00 -7°C° 0 mm 3 mps 744 mmHg 88%
    12:00 -7°C° 0 mm 3 mps 744 mmHg 87%
    13:00 -5°C° 0 mm 2 mps 743 mmHg 85%
    14:00 -5°C° 0 mm 2 mps 743 mmHg 84%
    15:00 -5°C° 0 mm 2 mps 742 mmHg 87%
    16:00 -7°C° 0 mm 3 mps 742 mmHg 89%
    17:00 -7°C° 0 mm 3 mps 741 mmHg 92%
    18:00 -7°C° 0 mm 3 mps 741 mmHg 92%
    19:00 -8°C° 0 mm 3 mps 741 mmHg 93%
    20:00 -8°C° 0 mm 3 mps 741 mmHg 94%
    21:00 -9°C° 0 mm 4 mps 740 mmHg 93%
    22:00 -9°C° 0 mm 4 mps 740 mmHg 93%
    23:00 -9°C° 0 mm 4 mps 740 mmHg 92%

    23 January, Wednesday

    Time Temperature Precipitation Wind Pressure Humidity
    00:00 -9°C° 0 mm 4 mps 739 mmHg 92%
    01:00 -9°C° 0 mm 4 mps 739 mmHg 92%
    02:00 -10°C° 0 mm 4 mps 738 mmHg 92%
    03:00 -9°C° 0 mm 4 mps 738 mmHg 92%
    04:00 -9°C° 0 mm 4 mps 737 mmHg 92%
    05:00 -9°C° 0 mm 4 mps 737 mmHg 92%
    06:00 -9°C° 0 mm 4 mps 737 mmHg 92%
    07:00 -8°C° 0 mm 5 mps 736 mmHg 92%
    08:00 -7°C° 0 mm 5 mps 736 mmHg 92%
    09:00 -6°C° 0 mm 5 mps 736 mmHg 91%
    10:00 -5°C° 0 mm 5 mps 736 mmHg 91%
    11:00 -5°C° 0 mm 5 mps 736 mmHg 90%
    12:00 -4°C° 0 mm 5 mps 735 mmHg 90%
    13:00 -3°C° 0 mm 6 mps 735 mmHg 89%
    14:00 -3°C° 0 mm 6 mps 735 mmHg 89%
    15:00 -3°C° 0 mm 6 mps 734 mmHg 90%
    16:00 -3°C° 0 mm 6 mps 734 mmHg 90%
    17:00 -2°C° 0 mm 5 mps 734 mmHg 91%
    18:00 -2°C° 0 mm 5 mps 734 mmHg 91%
    19:00 -2°C° 0 mm 5 mps 734 mmHg 92%
    20:00 -2°C° 0 mm 5 mps 734 mmHg 92%
    21:00 -1°C° 0 mm 5 mps 734 mmHg 93%
    22:00 -1°C° 0 mm 5 mps 734 mmHg 93%
    23:00 -1°C° 0 mm 5 mps 734 mmHg 93%

    24 January, Thursday

    Time Temperature Precipitation Wind Pressure Humidity
    00:00 -1°C° 0 mm 5 mps 734 mmHg 92%
    01:00 -1°C° 0 mm 5 mps 734 mmHg 92%
    02:00 -1°C° 0 mm 5 mps 734 mmHg 91%
    03:00 -2°C° 0 mm 5 mps 734 mmHg 91%
    04:00 -2°C° 0 mm 5 mps 734 mmHg 92%
    05:00 -2°C° 0 mm 4 mps 734 mmHg 93%
    06:00 -3°C° 0 mm 4 mps 734 mmHg 93%
    07:00 -3°C° 0 mm 4 mps 734 mmHg 93%
    08:00 -2°C° 0 mm 3 mps 734 mmHg 94%
    09:00 -2°C° 0 mm 3 mps 735 mmHg 94%
    10:00 -2°C° 0 mm 3 mps 735 mmHg 94%
    11:00 -1°C° 0 mm 3 mps 735 mmHg 94%
    12:00 -1°C° 0 mm 2 mps 735 mmHg 95%
    13:00 -1°C° 0 mm 2 mps 735 mmHg 96%
    14:00 -1°C° 0 mm 2 mps 735 mmHg 97%
    15:00 -1°C° 0 mm 2 mps 736 mmHg 97%
    16:00 -1°C° 0 mm 2 mps 736 mmHg 97%
    17:00 -1°C° 0 mm 2 mps 736 mmHg 97%
    18:00 -1°C° 0 mm 2 mps 736 mmHg 97%
    19:00 -2°C° 0 mm 2 mps 736 mmHg 96%
    20:00 -2°C° 0 mm 2 mps 737 mmHg 96%
    21:00 -2°C° 0 mm 2 mps 737 mmHg 96%
    22:00 0°C° 0 mm 1 mps 737 mmHg 96%
    23:00 0°C° 0 mm 1 mps 737 mmHg 96%

    25 January, Friday

    Time Temperature Precipitation Wind Pressure Humidity
    00:00 -2°C° 0 mm 2 mps 737 mmHg 96%
    01:00 -2°C° 0 mm 2 mps 737 mmHg 96%
    02:00 -2°C° 0 mm 2 mps 737 mmHg 96%
    03:00 -2°C° 0 mm 2 mps 737 mmHg 96%
    04:00 -2°C° 0 mm 2 mps 737 mmHg 96%
    05:00 -2°C° 0 mm 2 mps 737 mmHg 96%
    06:00 -3°C° 0 mm 2 mps 738 mmHg 95%
    07:00 -3°C° 0 mm 2 mps 738 mmHg 95%
    08:00 -3°C° 0 mm 2 mps 738 mmHg 95%
    09:00 -3°C° 0 mm 2 mps 738 mmHg 94%
    10:00 -2°C° 0 mm 2 mps 738 mmHg 94%
    11:00 -2°C° 0 mm 2 mps 738 mmHg 93%
    12:00 -2°C° 0 mm 2 mps 738 mmHg 92%
    13:00 -2°C° 0 mm 2 mps 738 mmHg 92%
    14:00 -2°C° 0 mm 3 mps 738 mmHg 91%
    15:00 -2°C° 0 mm 3 mps 738 mmHg 91%
    16:00 -2°C° 0 mm 3 mps 738 mmHg 92%
    17:00 -2°C° 0 mm 3 mps 739 mmHg 92%
    18:00 -2°C° 0 mm 3 mps 739 mmHg 92%
    19:00 -3°C° 0 mm 4 mps 739 mmHg 92%
    20:00 -4°C° 0 mm 4 mps 739 mmHg 92%
    21:00 -4°C° 0 mm 4 mps 739 mmHg 91%
    22:00 -5°C° 0 mm 5 mps 740 mmHg 91%
    23:00 -5°C° 0 mm 5 mps 740 mmHg 90%
    Show more